Tracking 25612 objects as of 19-May-2022
HD Live streaming from Space Station
objects crossing your sky now

COSMOS 2251 DEB

Track COSMOS 2251 DEB now!
10-day predictions


NORAD ID: 33760
Int'l Code: 1993-036H
Perigee: 768.8 km
Apogee: 799.6 km
Inclination: 74.0 °
Period: 100.4 minutes
Semi major axis: 7155 km
RCS: 0.111 m2 (medium)
Launch date: June 16, 1993
Source: Commonwealth of Independent States (former USSR) (CIS)
Launch site: PLESETSK MISSILE AND SPACE COMPLEX (PKMTR)

Note: This is SATELLITE DEBRIS
aabbcc
Your satellite tracking list
Your tracking list is empty




NASA's NSSDC Master Catalog

Two Line Element Set (TLE):
1 33760U 93036H   22138.73878740  .00000252  00000-0  98770-4 0  9994
2 33760  74.0303 151.8711 0021471 212.4551 265.8392 14.34397901694204
Source of the keplerian elements: AFSPC